星链-2586 (STARLINK-2586 )

导读

STARLINK-2586是美国SpaceX公司星链卫星互联网项目中的一颗卫星,于2021年5月4日发射升空,属于星链计划低轨卫星星座组网卫星,旨在为全球提供高速低延迟卫星互联网服务,丰富了星链星座的在轨规模,推动了全球卫星互联网基础设施建设。

Basic Information
目录编号:
48390
目录名称:
STARLINK-2586
国际标识:
2021-038AP
轨道中心:
EARTH
卫星名称:
星链-2586
卫星全名:
星链-2586 (STARLINK-2586 )
卫星状态:
在轨 (已飞行1870 天)
发射日期:
2021-05-04 UTC
国别 :
美国 (US)
星等 :
--
Orbit Information
数据来源 国际轨道数据 AOE轨道数据
星历时间 2026-06-17T19:08:24+0800
5小时前
查看轨道信息
2026-06-17T04:00:00+0800
20小时前
查看轨道信息
半长轴 6848.83km 6848.86km
偏心率 0.0001238 0.0001287
轨道倾角 53.158° 53.156°
近地点辐角 94.614° 67.259°
升交点赤经 228.500° 231.438°
平近点角 265.500° 52.352°
近地点 469.845km 469.841km
远地点 471.541km 471.605km
周期 94.012分钟 94.013分钟
每日圈数 15.317158 15.317059
Detailed Information
固有亮度:
5
最大亮度:
2.5
卫星平台:
Starlink V1.0
覆盖范围:
全球
运营商:
太空探索技术公司
运营商所在国:
美国
制造商(研发单位):
太空探索技术公司
制造商所在国:
美国
使用方式:
暂无
Satellite Introduction
星链(Starlink)计划是由太空探索技术公司(SpaceX)提出的一个巨型低轨卫星互联网星座项目,计划在2019年至2024年间在太空搭建由约1.2万颗卫星组成的“星链”网络,其中1584颗将部署在地球上空550千米处的近地轨道,并从2020年开始工作。该卫星仍在工作。
2D Orbit Map
3D Orbit Map
Orbit Altitude Analysis Chart
Orbit Inclination Analysis Chart
Orbit Comprehensive Analysis Chart
View Comprehensive Chart